When you browse on this site, cookies collect data to enhance your experience and personalize the content and advertising you see.
Visit our Privacy Policy to learn more. By continuing to use the site, you agree to this use of cookies and data.
  • In Hungary
  • List of Countries
  • For 7 days
  • Water Temperature
  • Satellite Maps
  • Weather Map
  • News
  • Weather Widgets
  • user-avatar
    Login

    Hourly Weather Sutolka

    Today, 24 January, Thursday

    Time Temperature Precipitation Wind Pressure Humidity
    00:00 -16°C° 0.5 mm 6 mps 738 mmHg 94%
    01:00 -16°C° 0.5 mm 6 mps 737 mmHg 94%
    02:00 -17°C° 0 mm 6 mps 736 mmHg 94%
    03:00 -17°C° 0.5 mm 6 mps 736 mmHg 94%
    04:00 -17°C° 0.5 mm 6 mps 735 mmHg 94%
    05:00 -17°C° 0.5 mm 6 mps 734 mmHg 94%
    06:00 -17°C° 0.3 mm 6 mps 734 mmHg 94%
    07:00 -17°C° 0.3 mm 5 mps 734 mmHg 94%
    08:00 -17°C° 0 mm 5 mps 733 mmHg 94%
    09:00 -17°C° 0.2 mm 5 mps 733 mmHg 94%
    10:00 -15°C° 0.2 mm 4 mps 733 mmHg 94%
    11:00 -15°C° 0.2 mm 4 mps 733 mmHg 94%
    12:00 -15°C° 0.1 mm 4 mps 734 mmHg 94%
    13:00 -15°C° 0.1 mm 4 mps 734 mmHg 93%
    14:00 -15°C° 0.1 mm 5 mps 734 mmHg 93%
    15:00 -17°C° 0 mm 4 mps 735 mmHg 94%
    16:00 -18°C° 0 mm 4 mps 735 mmHg 94%
    17:00 -19°C° 0 mm 4 mps 736 mmHg 95%
    18:00 -20°C° 0 mm 4 mps 736 mmHg 96%
    19:00 -21°C° 0 mm 3 mps 737 mmHg 96%
    20:00 -22°C° 0 mm 3 mps 737 mmHg 97%
    21:00 -22°C° 0 mm 3 mps 738 mmHg 97%
    22:00 -22°C° 0 mm 3 mps 739 mmHg 98%
    23:00 -22°C° 0 mm 3 mps 739 mmHg 98%

    Tomorrow, 25 January, Friday

    Time Temperature Precipitation Wind Pressure Humidity
    00:00 -22°C° 0 mm 3 mps 740 mmHg 98%
    01:00 -22°C° 0 mm 3 mps 740 mmHg 98%
    02:00 -22°C° 0 mm 3 mps 740 mmHg 97%
    03:00 -22°C° 0 mm 3 mps 741 mmHg 98%
    04:00 -22°C° 0 mm 3 mps 741 mmHg 98%
    05:00 -23°C° 0 mm 3 mps 741 mmHg 99%
    06:00 -23°C° 0 mm 3 mps 742 mmHg 99%
    07:00 -23°C° 0 mm 3 mps 743 mmHg 99%
    08:00 -23°C° 0 mm 3 mps 743 mmHg 99%
    09:00 -22°C° 0 mm 3 mps 744 mmHg 97%
    10:00 -21°C° 0 mm 3 mps 744 mmHg 95%
    11:00 -18°C° 0 mm 3 mps 744 mmHg 92%
    12:00 -18°C° 0 mm 3 mps 745 mmHg 93%
    13:00 -18°C° 0 mm 3 mps 745 mmHg 93%
    14:00 -17°C° 0 mm 2 mps 745 mmHg 93%
    15:00 -19°C° 0 mm 3 mps 745 mmHg 93%
    16:00 -21°C° 0 mm 3 mps 745 mmHg 94%
    17:00 -22°C° 0 mm 3 mps 745 mmHg 94%
    18:00 -22°C° 0 mm 3 mps 745 mmHg 94%
    19:00 -24°C° 0 mm 4 mps 745 mmHg 94%
    20:00 -24°C° 0 mm 4 mps 745 mmHg 93%
    21:00 -24°C° 0 mm 4 mps 744 mmHg 93%
    22:00 -25°C° 0 mm 5 mps 744 mmHg 92%
    23:00 -25°C° 0 mm 5 mps 744 mmHg 91%

    Day after tomorrow, 26 January, Saturday

    Time Temperature Precipitation Wind Pressure Humidity
    00:00 -25°C° 0 mm 5 mps 743 mmHg 90%
    01:00 -24°C° 0 mm 6 mps 743 mmHg 89%
    02:00 -24°C° 0 mm 6 mps 742 mmHg 87%
    03:00 -23°C° 0 mm 6 mps 741 mmHg 88%
    04:00 -23°C° 0 mm 6 mps 741 mmHg 89%
    05:00 -22°C° 0 mm 6 mps 740 mmHg 89%
    06:00 -21°C° 0.6 mm 6 mps 739 mmHg 91%
    07:00 -20°C° 0.6 mm 7 mps 739 mmHg 93%
    08:00 -20°C° 0.6 mm 7 mps 738 mmHg 94%
    09:00 -19°C° 0.3 mm 7 mps 737 mmHg 94%
    10:00 -18°C° 0.3 mm 7 mps 737 mmHg 94%
    11:00 -17°C° 0.3 mm 7 mps 736 mmHg 94%
    12:00 -15°C° 0.3 mm 7 mps 735 mmHg 94%
    13:00 -15°C° 0.3 mm 7 mps 735 mmHg 93%
    14:00 -14°C° 0.3 mm 7 mps 734 mmHg 93%
    15:00 -13°C° 0.4 mm 7 mps 733 mmHg 93%
    16:00 -12°C° 0.4 mm 6 mps 733 mmHg 94%
    17:00 -11°C° 0.4 mm 6 mps 732 mmHg 94%
    18:00 -10°C° 0.3 mm 6 mps 731 mmHg 94%
    19:00 -9°C° 0.3 mm 6 mps 731 mmHg 93%
    20:00 -8°C° 0.3 mm 7 mps 730 mmHg 93%
    21:00 -6°C° 0.2 mm 7 mps 730 mmHg 93%
    22:00 -4°C° 0.2 mm 7 mps 730 mmHg 94%
    23:00 -2°C° 0.2 mm 7 mps 729 mmHg 94%

    27 January, Sunday

    Time Temperature Precipitation Wind Pressure Humidity
    00:00 -2°C° 0.5 mm 7 mps 729 mmHg 94%
    01:00 -2°C° 0.5 mm 7 mps 728 mmHg 93%
    02:00 -2°C° 0.5 mm 7 mps 728 mmHg 93%
    03:00 -2°C° 0.4 mm 7 mps 727 mmHg 93%
    04:00 -2°C° 0.4 mm 7 mps 727 mmHg 92%
    05:00 -3°C° 0.4 mm 7 mps 726 mmHg 92%
    06:00 -3°C° 1.1 mm 7 mps 726 mmHg 92%
    07:00 -3°C° 1.1 mm 7 mps 726 mmHg 92%
    08:00 -3°C° 1.1 mm 7 mps 726 mmHg 92%
    09:00 -3°C° 0.4 mm 7 mps 726 mmHg 92%
    10:00 -3°C° 0.4 mm 7 mps 725 mmHg 92%
    11:00 -3°C° 0.4 mm 7 mps 725 mmHg 92%
    12:00 -3°C° 0.5 mm 7 mps 724 mmHg 93%
    13:00 -3°C° 0.5 mm 7 mps 724 mmHg 93%
    14:00 -3°C° 0.5 mm 6 mps 724 mmHg 93%
    15:00 -3°C° 0.3 mm 6 mps 724 mmHg 93%
    16:00 -2°C° 0.3 mm 5 mps 724 mmHg 94%
    17:00 -2°C° 0.3 mm 4 mps 724 mmHg 95%
    18:00 -2°C° 0.4 mm 4 mps 724 mmHg 95%
    19:00 -2°C° 0.4 mm 3 mps 724 mmHg 96%
    20:00 -2°C° 0.4 mm 3 mps 725 mmHg 97%
    21:00 -5°C° 0.3 mm 4 mps 725 mmHg 96%
    22:00 -7°C° 0.3 mm 5 mps 726 mmHg 95%
    23:00 -10°C° 0.3 mm 6 mps 726 mmHg 94%

    28 January, Monday

    Time Temperature Precipitation Wind Pressure Humidity
    00:00 -11°C° 0.1 mm 6 mps 727 mmHg 94%
    01:00 -12°C° 0.1 mm 6 mps 728 mmHg 93%
    02:00 -14°C° 0.1 mm 6 mps 729 mmHg 93%
    03:00 -15°C° 0 mm 6 mps 729 mmHg 94%
    04:00 -17°C° 0 mm 5 mps 730 mmHg 94%
    05:00 -18°C° 0 mm 5 mps 731 mmHg 95%
    06:00 -19°C° 0 mm 5 mps 731 mmHg 96%
    07:00 -19°C° 0 mm 4 mps 732 mmHg 96%
    08:00 -18°C° 0 mm 3 mps 733 mmHg 97%
    09:00 -18°C° 0 mm 3 mps 733 mmHg 96%
    10:00 -17°C° 0 mm 3 mps 734 mmHg 95%
    11:00 -17°C° 0 mm 3 mps 735 mmHg 95%
    12:00 -16°C° 0 mm 2 mps 735 mmHg 94%
    13:00 -15°C° 0 mm 2 mps 735 mmHg 94%
    14:00 -13°C° 0 mm 1 mps 735 mmHg 94%
    15:00 -14°C° 0 mm 1 mps 736 mmHg 92%
    16:00 -15°C° 0 mm 1 mps 736 mmHg 91%
    17:00 -16°C° 0 mm 1 mps 736 mmHg 89%
    18:00 -16°C° 0 mm 1 mps 736 mmHg 88%
    19:00 -18°C° 0 mm 2 mps 737 mmHg 86%
    20:00 -18°C° 0 mm 2 mps 737 mmHg 85%
    21:00 -17°C° 0 mm 2 mps 737 mmHg 85%
    22:00 -17°C° 0 mm 2 mps 737 mmHg 85%
    23:00 -18°C° 0 mm 3 mps 737 mmHg 85%

    29 January, Tuesday

    Time Temperature Precipitation Wind Pressure Humidity
    00:00 -17°C° 0 mm 3 mps 737 mmHg 84%
    01:00 -16°C° 0 mm 3 mps 737 mmHg 83%
    02:00 -16°C° 0 mm 4 mps 736 mmHg 82%
    03:00 -15°C° 0 mm 4 mps 736 mmHg 83%
    04:00 -14°C° 0 mm 5 mps 736 mmHg 84%
    05:00 -13°C° 0 mm 5 mps 735 mmHg 84%
    06:00 -14°C° 0.1 mm 6 mps 735 mmHg 86%
    07:00 -12°C° 0.1 mm 6 mps 735 mmHg 87%
    08:00 -12°C° 0.1 mm 7 mps 734 mmHg 88%
    09:00 -11°C° 0.6 mm 7 mps 734 mmHg 90%
    10:00 -9°C° 0.6 mm 7 mps 734 mmHg 92%
    11:00 -9°C° 0.6 mm 7 mps 734 mmHg 94%
    12:00 -8°C° 0.2 mm 7 mps 733 mmHg 94%
    13:00 -7°C° 0.2 mm 7 mps 733 mmHg 93%
    14:00 -6°C° 0.2 mm 7 mps 733 mmHg 93%
    15:00 -4°C° 0.2 mm 7 mps 733 mmHg 94%
    16:00 -3°C° 0.2 mm 7 mps 733 mmHg 95%
    17:00 -2°C° 0.2 mm 7 mps 733 mmHg 95%
    18:00 -2°C° 0.1 mm 6 mps 733 mmHg 97%
    19:00 -2°C° 0.1 mm 6 mps 733 mmHg 98%
    20:00 -1°C° 0.1 mm 5 mps 733 mmHg 99%
    21:00 -1°C° 0.1 mm 5 mps 733 mmHg 98%
    22:00 -1°C° 0.1 mm 5 mps 734 mmHg 98%
    23:00 -1°C° 0.1 mm 4 mps 734 mmHg 98%
    Show more